contact:dominique.lefevre@mio.osupytheas.fr, maurice.libes@osupytheas.fr, didier.mallarino@osupytheas.fr
Project:EMSO http://www.emso-fr.org/EMSO-France
Depth: 2436.0 m
Title:EMSO Ligure Ouest : Data MII capteur MICROCAT
DateTime_Computer,Latitude,Longitude,Temperature,Conductivity,Pressure,DateTime_Instrument
DateTime_Computer,Latitude,Longitude,degC,S m-1,dbar,DateTime_Instrument
2019-09-29T00:01:50Z,42.805,6.029,13.3021,4.59996,2469.9,2019-9-29T02:02:14Z
2019-09-29T00:04:53Z,42.805,6.029,13.2998,4.59990,2469.867,2019-9-29T02:05:17Z
2019-09-29T00:07:56Z,42.805,6.029,13.3008,4.59996,2469.867,2019-9-29T02:08:20Z
2019-09-29T00:10:59Z,42.805,6.029,13.2998,4.60002,2469.867,2019-9-29T02:11:23Z
2019-09-29T00:14:02Z,42.805,6.029,13.2998,4.59981,2469.89,2019-9-29T02:14:26Z
2019-09-29T00:17:06Z,42.805,6.029,13.2999,4.59990,2469.867,2019-9-29T02:17:30Z
2019-09-29T00:20:09Z,42.805,6.029,13.2995,4.59982,2469.876,2019-9-29T02:20:33Z
2019-09-29T00:23:12Z,42.805,6.029,13.2994,4.59982,2469.853,2019-9-29T02:23:36Z
2019-09-29T00:26:15Z,42.805,6.029,13.3018,4.59983,2469.844,2019-9-29T02:26:39Z
2019-09-29T00:29:18Z,42.805,6.029,13.3008,4.59988,2469.853,2019-9-29T02:29:42Z
2019-09-29T00:32:22Z,42.805,6.029,13.2990,4.59994,2469.83,2019-9-29T02:32:46Z
2019-09-29T00:35:25Z,42.805,6.029,13.2991,4.59994,2469.83,2019-9-29T02:35:49Z
2019-09-29T00:38:28Z,42.805,6.029,13.2996,4.59987,2469.844,2019-9-29T02:38:52Z
2019-09-29T00:41:31Z,42.805,6.029,13.3007,4.59982,2469.853,2019-9-29T02:41:55Z
2019-09-29T00:44:34Z,42.805,6.029,13.2999,4.60001,2469.806,2019-9-29T02:44:58Z
2019-09-29T00:47:38Z,42.805,6.029,13.2998,4.59984,2469.844,2019-9-29T02:48:02Z
2019-09-29T00:50:41Z,42.805,6.029,13.3001,4.59996,2469.867,2019-9-29T02:51:05Z
2019-09-29T00:53:44Z,42.805,6.029,13.2996,4.59991,2469.821,2019-9-29T02:54:08Z
2019-09-29T00:56:47Z,42.805,6.029,13.2997,4.59999,2469.821,2019-9-29T02:57:11Z
2019-09-29T00:59:50Z,42.805,6.029,13.2995,4.59984,2469.853,2019-9-29T03:00:14Z
2019-09-29T01:02:53Z,42.805,6.029,13.2990,4.59990,2469.821,2019-9-29T03:03:17Z
2019-09-29T01:05:57Z,42.805,6.029,13.3000,4.59986,2469.821,2019-9-29T03:06:21Z
2019-09-29T01:09:00Z,42.805,6.029,13.3006,4.59997,2469.773,2019-9-29T03:09:24Z
2019-09-29T01:12:03Z,42.805,6.029,13.3009,4.59985,2469.806,2019-9-29T03:12:27Z
2019-09-29T01:15:06Z,42.805,6.029,13.2997,4.59992,2469.76,2019-9-29T03:15:30Z
2019-09-29T01:18:10Z,42.805,6.029,13.3004,4.60003,2469.844,2019-9-29T03:18:34Z
2019-09-29T01:21:13Z,42.805,6.029,13.3007,4.59996,2469.83,2019-9-29T03:21:37Z
2019-09-29T01:24:16Z,42.805,6.029,13.3006,4.59994,2469.83,2019-9-29T03:24:40Z
2019-09-29T01:27:19Z,42.805,6.029,13.2993,4.59992,2469.773,2019-9-29T03:27:43Z
2019-09-29T01:30:22Z,42.805,6.029,13.3006,4.60014,2469.806,2019-9-29T03:30:46Z
2019-09-29T01:33:26Z,42.805,6.029,13.3018,4.59992,2469.806,2019-9-29T03:33:50Z
2019-09-29T01:36:29Z,42.805,6.029,13.2966,4.60000,2469.821,2019-9-29T03:36:53Z
2019-09-29T01:39:32Z,42.805,6.029,13.2996,4.59999,2469.783,2019-9-29T03:39:56Z
2019-09-29T01:42:35Z,42.805,6.029,13.3006,4.59991,2469.783,2019-9-29T03:42:59Z
2019-09-29T01:45:38Z,42.805,6.029,13.3009,4.60010,2469.783,2019-9-29T03:46:02Z
2019-09-29T01:48:42Z,42.805,6.029,13.3005,4.60001,2469.806,2019-9-29T03:49:06Z
2019-09-29T01:51:45Z,42.805,6.029,13.3007,4.59989,2469.821,2019-9-29T03:52:09Z
2019-09-29T01:54:48Z,42.805,6.029,13.3019,4.60012,2469.773,2019-9-29T03:55:12Z
2019-09-29T01:57:51Z,42.805,6.029,13.3010,4.60004,2469.76,2019-9-29T03:58:15Z
2019-09-29T02:00:55Z,42.805,6.029,13.3051,4.60003,2469.783,2019-9-29T04:01:19Z
2019-09-29T02:03:58Z,42.805,6.029,13.2997,4.60009,2469.806,2019-9-29T04:04:22Z
2019-09-29T02:07:01Z,42.805,6.029,13.3023,4.59999,2469.797,2019-9-29T04:07:25Z
2019-09-29T02:10:04Z,42.805,6.029,13.2999,4.60009,2469.806,2019-9-29T04:10:28Z
2019-09-29T02:13:07Z,42.805,6.029,13.3000,4.60003,2469.773,2019-9-29T04:13:31Z
2019-09-29T02:16:10Z,42.805,6.029,13.3006,4.59994,2469.76,2019-9-29T04:16:35Z
2019-09-29T02:19:14Z,42.805,6.029,13.3050,4.60003,2469.783,2019-9-29T04:19:38Z
2019-09-29T02:22:17Z,42.805,6.029,13.3030,4.60000,2469.806,2019-9-29T04:22:41Z
2019-09-29T02:25:20Z,42.805,6.029,13.3000,4.60000,2469.797,2019-9-29T04:25:44Z
2019-09-29T02:28:23Z,42.805,6.029,13.2986,4.60005,2469.821,2019-9-29T04:28:47Z
2019-09-29T02:31:26Z,42.805,6.029,13.2986,4.60003,2469.797,2019-9-29T04:31:51Z
2019-09-29T02:34:30Z,42.805,6.029,13.3036,4.60010,2469.821,2019-9-29T04:34:54Z
2019-09-29T02:37:33Z,42.805,6.029,13.2976,4.59990,2469.75,2019-9-29T04:37:57Z
2019-09-29T02:40:36Z,42.805,6.029,13.2995,4.59995,2469.783,2019-9-29T04:41:00Z
2019-09-29T02:43:39Z,42.805,6.029,13.2980,4.59991,2469.811,2019-9-29T04:44:03Z
2019-09-29T02:46:42Z,42.805,6.029,13.2978,4.59994,2469.821,2019-9-29T04:47:07Z
2019-09-29T02:49:46Z,42.805,6.029,13.2975,4.60029,2469.821,2019-9-29T04:50:10Z
2019-09-29T02:52:49Z,42.805,6.029,13.2969,4.60029,2469.821,2019-9-29T04:53:13Z
2019-09-29T02:55:52Z,42.805,6.029,13.2982,4.59995,2469.797,2019-9-29T04:56:16Z
2019-09-29T02:58:55Z,42.805,6.029,13.2958,4.59998,2469.797,2019-9-29T04:59:19Z
2019-09-29T03:01:58Z,42.805,6.029,13.2958,4.59985,2469.806,2019-9-29T05:02:23Z
2019-09-29T03:05:02Z,42.805,6.029,13.2961,4.59997,2469.816,2019-9-29T05:05:26Z
2019-09-29T03:08:05Z,42.805,6.029,13.2957,4.59983,2469.83,2019-9-29T05:08:29Z
2019-09-29T03:11:08Z,42.805,6.029,13.2954,4.59979,2469.844,2019-9-29T05:11:33Z
2019-09-29T03:14:12Z,42.805,6.029,13.2958,4.59970,2469.821,2019-9-29T05:14:36Z
2019-09-29T03:17:15Z,42.805,6.029,13.2955,4.59970,2469.853,2019-9-29T05:17:39Z
2019-09-29T03:20:18Z,42.805,6.029,13.2958,4.59978,2469.844,2019-9-29T05:20:42Z
2019-09-29T03:23:21Z,42.805,6.029,13.2957,4.59967,2469.844,2019-9-29T05:23:45Z
2019-09-29T03:26:25Z,42.805,6.029,13.2955,4.59971,2469.806,2019-9-29T05:26:49Z
2019-09-29T03:29:28Z,42.805,6.029,13.2964,4.59973,2469.821,2019-9-29T05:29:52Z
2019-09-29T03:32:31Z,42.805,6.029,13.2960,4.59968,2469.821,2019-9-29T05:32:55Z
2019-09-29T03:35:34Z,42.805,6.029,13.2959,4.59969,2469.83,2019-9-29T05:35:58Z
2019-09-29T03:38:37Z,42.805,6.029,13.2957,4.59964,2469.844,2019-9-29T05:39:01Z
2019-09-29T03:41:41Z,42.805,6.029,13.2957,4.59967,2469.821,2019-9-29T05:42:05Z
2019-09-29T03:44:44Z,42.805,6.029,13.2957,4.59964,2469.844,2019-9-29T05:45:08Z
2019-09-29T03:47:47Z,42.805,6.029,13.2957,4.59970,2469.83,2019-9-29T05:48:11Z
2019-09-29T03:50:50Z,42.805,6.029,13.2957,4.59968,2469.844,2019-9-29T05:51:14Z
2019-09-29T03:53:53Z,42.805,6.029,13.2957,4.59976,2469.853,2019-9-29T05:54:17Z
2019-09-29T03:56:56Z,42.805,6.029,13.2958,4.59968,2469.867,2019-9-29T05:57:21Z
2019-09-29T04:00:00Z,42.805,6.029,13.2956,4.59964,2469.867,2019-9-29T06:00:24Z
2019-09-29T04:03:03Z,42.805,6.029,13.2957,4.59965,2469.876,2019-9-29T06:03:27Z
2019-09-29T04:06:06Z,42.805,6.029,13.2955,4.59964,2469.853,2019-9-29T06:06:30Z
2019-09-29T04:09:09Z,42.805,6.029,13.2955,4.59967,2469.853,2019-9-29T06:09:33Z
2019-09-29T04:12:12Z,42.805,6.029,13.2957,4.59973,2469.876,2019-9-29T06:12:37Z
2019-09-29T04:15:16Z,42.805,6.029,13.2957,4.59970,2469.853,2019-9-29T06:15:40Z
2019-09-29T04:18:19Z,42.805,6.029,13.2961,4.59971,2469.867,2019-9-29T06:18:43Z
2019-09-29T04:21:22Z,42.805,6.029,13.2958,4.59973,2469.914,2019-9-29T06:21:46Z
2019-09-29T04:24:25Z,42.805,6.029,13.2958,4.59975,2469.876,2019-9-29T06:24:49Z
2019-09-29T04:27:28Z,42.805,6.029,13.2954,4.59972,2469.876,2019-9-29T06:27:53Z
2019-09-29T04:30:32Z,42.805,6.029,13.2964,4.59974,2469.9,2019-9-29T06:30:56Z
2019-09-29T04:33:35Z,42.805,6.029,13.2961,4.59978,2469.9,2019-9-29T06:33:59Z
2019-09-29T04:36:38Z,42.805,6.029,13.2955,4.59973,2469.89,2019-9-29T06:37:02Z
2019-09-29T04:39:41Z,42.805,6.029,13.2959,4.59971,2469.89,2019-9-29T06:40:05Z
2019-09-29T04:42:44Z,42.805,6.029,13.2957,4.59967,2469.937,2019-9-29T06:43:08Z
2019-09-29T04:45:47Z,42.805,6.029,13.2958,4.59970,2469.9,2019-9-29T06:46:12Z
2019-09-29T04:48:51Z,42.805,6.029,13.2963,4.59987,2469.914,2019-9-29T06:49:15Z
2019-09-29T04:51:54Z,42.805,6.029,13.2961,4.59981,2469.923,2019-9-29T06:52:18Z
2019-09-29T04:54:57Z,42.805,6.029,13.2956,4.59973,2469.9,2019-9-29T06:55:21Z
2019-09-29T04:58:00Z,42.805,6.029,13.2958,4.59969,2469.937,2019-9-29T06:58:24Z
2019-09-29T05:01:03Z,42.805,6.029,13.2958,4.59974,2469.97,2019-9-29T07:01:28Z
2019-09-29T05:04:07Z,42.805,6.029,13.2956,4.59965,2469.96,2019-9-29T07:04:31Z
2019-09-29T05:07:10Z,42.805,6.029,13.2955,4.59969,2469.9,2019-9-29T07:07:34Z
2019-09-29T05:10:13Z,42.805,6.029,13.2956,4.59971,2469.96,2019-9-29T07:10:37Z
2019-09-29T05:13:16Z,42.805,6.029,13.2960,4.59967,2469.96,2019-9-29T07:13:40Z
2019-09-29T05:16:19Z,42.805,6.029,13.2957,4.59969,2469.96,2019-9-29T07:16:43Z
2019-09-29T05:19:23Z,42.805,6.029,13.2955,4.59972,2469.923,2019-9-29T07:19:47Z
2019-09-29T05:22:26Z,42.805,6.029,13.2953,4.59968,2469.947,2019-9-29T07:22:50Z
2019-09-29T05:25:29Z,42.805,6.029,13.2958,4.59961,2469.933,2019-9-29T07:25:53Z
2019-09-29T05:28:32Z,42.805,6.029,13.2958,4.59966,2469.96,2019-9-29T07:28:56Z
2019-09-29T05:31:35Z,42.805,6.029,13.2958,4.59964,2470.007,2019-9-29T07:32:00Z
2019-09-29T05:34:39Z,42.805,6.029,13.2958,4.59961,2469.923,2019-9-29T07:35:03Z
2019-09-29T05:37:42Z,42.805,6.029,13.2958,4.59968,2469.937,2019-9-29T07:38:06Z
2019-09-29T05:40:45Z,42.805,6.029,13.2957,4.59964,2470.007,2019-9-29T07:41:09Z
2019-09-29T05:43:48Z,42.805,6.029,13.2955,4.59965,2469.97,2019-9-29T07:44:12Z
2019-09-29T05:46:51Z,42.805,6.029,13.2959,4.59970,2469.993,2019-9-29T07:47:16Z
2019-09-29T05:49:55Z,42.805,6.029,13.2959,4.59964,2470.007,2019-9-29T07:50:19Z
2019-09-29T05:52:58Z,42.805,6.029,13.2959,4.59961,2469.984,2019-9-29T07:53:22Z
2019-09-29T05:56:01Z,42.805,6.029,13.2957,4.59961,2469.96,2019-9-29T07:56:25Z
2019-09-29T05:59:04Z,42.805,6.029,13.2959,4.59964,2470.03,2019-9-29T07:59:28Z
2019-09-29T06:02:07Z,42.805,6.029,13.2955,4.59970,2469.984,2019-9-29T08:02:32Z
2019-09-29T06:05:11Z,42.805,6.029,13.2956,4.59964,2470.007,2019-9-29T08:05:35Z
2019-09-29T06:08:14Z,42.805,6.029,13.2961,4.59963,2470.017,2019-9-29T08:08:38Z
2019-09-29T06:11:17Z,42.805,6.029,13.2957,4.59961,2469.993,2019-9-29T08:11:41Z
2019-09-29T06:14:20Z,42.805,6.029,13.2958,4.59964,2469.993,2019-9-29T08:14:44Z
2019-09-29T06:17:23Z,42.805,6.029,13.2957,4.59962,2470.007,2019-9-29T08:17:47Z
2019-09-29T06:20:26Z,42.805,6.029,13.2958,4.59962,2469.993,2019-9-29T08:20:51Z
2019-09-29T06:23:30Z,42.805,6.029,13.2957,4.59963,2470.04,2019-9-29T08:23:54Z
2019-09-29T06:26:33Z,42.805,6.029,13.2957,4.59961,2470.017,2019-9-29T08:26:57Z
2019-09-29T06:29:36Z,42.805,6.029,13.2957,4.59962,2469.993,2019-9-29T08:30:00Z
2019-09-29T06:32:39Z,42.805,6.029,13.2958,4.59961,2470.03,2019-9-29T08:33:03Z
2019-09-29T06:35:43Z,42.805,6.029,13.2959,4.59964,2470.017,2019-9-29T08:36:07Z
2019-09-29T06:38:46Z,42.805,6.029,13.2958,4.59962,2469.993,2019-9-29T08:39:10Z
2019-09-29T06:41:49Z,42.805,6.029,13.2957,4.59958,2470.03,2019-9-29T08:42:13Z
2019-09-29T06:44:52Z,42.805,6.029,13.2955,4.59960,2470.007,2019-9-29T08:45:16Z
2019-09-29T06:47:55Z,42.805,6.029,13.2957,4.59960,2470.017,2019-9-29T08:48:19Z
2019-09-29T06:50:59Z,42.805,6.029,13.2957,4.59962,2470.03,2019-9-29T08:51:23Z
2019-09-29T06:54:02Z,42.805,6.029,13.2957,4.59958,2470.053,2019-9-29T08:54:26Z
2019-09-29T06:57:05Z,42.805,6.029,13.2957,4.59962,2470.04,2019-9-29T08:57:29Z
2019-09-29T07:00:08Z,42.805,6.029,13.2958,4.59964,2470.03,2019-9-29T09:00:32Z
2019-09-29T07:03:11Z,42.805,6.029,13.2961,4.59960,2470.03,2019-9-29T09:03:36Z
2019-09-29T07:06:15Z,42.805,6.029,13.2959,4.59960,2470.03,2019-9-29T09:06:39Z
2019-09-29T07:09:18Z,42.805,6.029,13.2958,4.59960,2470.017,2019-9-29T09:09:42Z
2019-09-29T07:12:21Z,42.805,6.029,13.2961,4.59961,2470.053,2019-9-29T09:12:45Z
2019-09-29T07:15:24Z,42.805,6.029,13.2957,4.59959,2470.017,2019-9-29T09:15:48Z
2019-09-29T07:18:27Z,42.805,6.029,13.2957,4.59958,2470.04,2019-9-29T09:18:52Z
2019-09-29T07:21:31Z,42.805,6.029,13.2956,4.59961,2470.007,2019-9-29T09:21:55Z
2019-09-29T07:24:34Z,42.805,6.029,13.2956,4.59961,2470.04,2019-9-29T09:24:58Z
2019-09-29T07:27:37Z,42.805,6.029,13.2958,4.59960,2470.03,2019-9-29T09:28:01Z
2019-09-29T07:30:40Z,42.805,6.029,13.2955,4.59958,2470.04,2019-9-29T09:31:04Z
2019-09-29T07:33:43Z,42.805,6.029,13.2956,4.59964,2470.04,2019-9-29T09:34:07Z
2019-09-29T07:36:47Z,42.805,6.029,13.2957,4.59963,2470.04,2019-9-29T09:37:11Z
2019-09-29T07:39:50Z,42.805,6.029,13.2960,4.59961,2470.017,2019-9-29T09:40:14Z
2019-09-29T07:42:53Z,42.805,6.029,13.2955,4.59961,2470.053,2019-9-29T09:43:17Z
2019-09-29T07:45:56Z,42.805,6.029,13.2957,4.59963,2470.03,2019-9-29T09:46:20Z
2019-09-29T07:48:59Z,42.805,6.029,13.2957,4.59963,2470.04,2019-9-29T09:49:24Z
2019-09-29T07:52:03Z,42.805,6.029,13.2957,4.59959,2470.053,2019-9-29T09:52:27Z
2019-09-29T07:55:06Z,42.805,6.029,13.2958,4.59958,2470.017,2019-9-29T09:55:30Z
2019-09-29T07:58:09Z,42.805,6.029,13.2957,4.59959,2470.03,2019-9-29T09:58:33Z
2019-09-29T08:01:12Z,42.805,6.029,13.2958,4.59958,2470.03,2019-9-29T10:01:36Z
2019-09-29T08:04:15Z,42.805,6.029,13.2961,4.59958,2470.03,2019-9-29T10:04:40Z
2019-09-29T08:07:19Z,42.805,6.029,13.2957,4.59958,2470.03,2019-9-29T10:07:43Z
2019-09-29T08:10:22Z,42.805,6.029,13.2962,4.59961,2469.993,2019-9-29T10:10:46Z
2019-09-29T08:13:25Z,42.805,6.029,13.2957,4.59959,2470.053,2019-9-29T10:13:49Z
2019-09-29T08:16:28Z,42.805,6.029,13.2957,4.59960,2470.017,2019-9-29T10:16:52Z
2019-09-29T08:19:31Z,42.805,6.029,13.2958,4.59958,2469.993,2019-9-29T10:19:56Z
2019-09-29T08:22:35Z,42.805,6.029,13.2957,4.59961,2470.007,2019-9-29T10:22:59Z
2019-09-29T08:25:38Z,42.805,6.029,13.2958,4.59963,2470.03,2019-9-29T10:26:02Z
2019-09-29T08:28:41Z,42.805,6.029,13.2956,4.59961,2470.017,2019-9-29T10:29:05Z
2019-09-29T08:31:44Z,42.805,6.029,13.2956,4.59966,2469.993,2019-9-29T10:32:08Z
2019-09-29T08:34:47Z,42.805,6.029,13.2956,4.59961,2469.993,2019-9-29T10:35:12Z
2019-09-29T08:37:51Z,42.805,6.029,13.2957,4.59959,2470.03,2019-9-29T10:38:15Z
2019-09-29T08:40:54Z,42.805,6.029,13.2961,4.59959,2470.03,2019-9-29T10:41:18Z
2019-09-29T08:43:57Z,42.805,6.029,13.2958,4.59961,2470.03,2019-9-29T10:44:21Z
2019-09-29T08:47:00Z,42.805,6.029,13.2958,4.59961,2469.993,2019-9-29T10:47:24Z
2019-09-29T08:50:03Z,42.805,6.029,13.2959,4.59960,2469.984,2019-9-29T10:50:28Z
2019-09-29T08:53:07Z,42.805,6.029,13.2961,4.59961,2469.97,2019-9-29T10:53:31Z
2019-09-29T08:56:10Z,42.805,6.029,13.2958,4.59961,2469.984,2019-9-29T10:56:34Z
2019-09-29T08:59:13Z,42.805,6.029,13.2958,4.59961,2470.03,2019-9-29T10:59:37Z
2019-09-29T09:02:16Z,42.805,6.029,13.2956,4.59962,2469.993,2019-9-29T11:02:40Z
2019-09-29T09:05:20Z,42.805,6.029,13.2959,4.59961,2469.97,2019-9-29T11:05:44Z
2019-09-29T09:08:23Z,42.805,6.029,13.2957,4.59960,2469.984,2019-9-29T11:08:47Z
2019-09-29T09:11:26Z,42.805,6.029,13.2960,4.59961,2470.007,2019-9-29T11:11:50Z
2019-09-29T09:14:29Z,42.805,6.029,13.2957,4.59960,2469.993,2019-9-29T11:14:53Z
2019-09-29T09:17:32Z,42.805,6.029,13.2960,4.59961,2469.984,2019-9-29T11:17:56Z
2019-09-29T09:20:36Z,42.805,6.029,13.2960,4.59966,2469.984,2019-9-29T11:21:00Z
2019-09-29T09:23:39Z,42.805,6.029,13.2958,4.59966,2469.993,2019-9-29T11:24:03Z
2019-09-29T09:26:42Z,42.805,6.029,13.2959,4.59961,2469.984,2019-9-29T11:27:06Z
2019-09-29T09:29:45Z,42.805,6.029,13.2961,4.59961,2469.947,2019-9-29T11:30:09Z
2019-09-29T09:32:48Z,42.805,6.029,13.2956,4.59964,2469.993,2019-9-29T11:33:13Z
2019-09-29T09:35:52Z,42.805,6.029,13.2954,4.59961,2469.984,2019-9-29T11:36:16Z
2019-09-29T09:38:55Z,42.805,6.029,13.2954,4.59963,2469.947,2019-9-29T11:39:19Z
2019-09-29T09:41:58Z,42.805,6.029,13.2962,4.59965,2469.993,2019-9-29T11:42:22Z
2019-09-29T09:45:01Z,42.805,6.029,13.2962,4.59963,2470.007,2019-9-29T11:45:25Z
2019-09-29T09:48:05Z,42.805,6.029,13.2958,4.59964,2469.984,2019-9-29T11:48:29Z
2019-09-29T09:51:08Z,42.805,6.029,13.2958,4.59960,2469.96,2019-9-29T11:51:32Z
2019-09-29T09:54:11Z,42.805,6.029,13.2956,4.59961,2469.923,2019-9-29T11:54:35Z
2019-09-29T09:57:14Z,42.805,6.029,13.2957,4.59960,2469.937,2019-9-29T11:57:38Z
2019-09-29T10:00:17Z,42.805,6.029,13.2954,4.59964,2469.947,2019-9-29T12:00:41Z
2019-09-29T10:03:21Z,42.805,6.029,13.2957,4.59961,2469.96,2019-9-29T12:03:45Z
2019-09-29T10:06:24Z,42.805,6.029,13.2958,4.59963,2469.947,2019-9-29T12:06:48Z
2019-09-29T10:09:27Z,42.805,6.029,13.2956,4.59964,2469.96,2019-9-29T12:09:51Z
2019-09-29T10:12:30Z,42.805,6.029,13.2959,4.59968,2469.947,2019-9-29T12:12:54Z
2019-09-29T10:15:33Z,42.805,6.029,13.2960,4.59959,2469.937,2019-9-29T12:15:57Z
2019-09-29T10:18:36Z,42.805,6.029,13.2958,4.59968,2469.937,2019-9-29T12:19:01Z
2019-09-29T10:21:40Z,42.805,6.029,13.2958,4.59961,2469.9,2019-9-29T12:22:04Z
2019-09-29T10:24:43Z,42.805,6.029,13.2960,4.59960,2469.947,2019-9-29T12:25:07Z
2019-09-29T10:27:46Z,42.805,6.029,13.2955,4.59968,2469.923,2019-9-29T12:28:10Z
2019-09-29T10:30:49Z,42.805,6.029,13.2958,4.59959,2469.96,2019-9-29T12:31:13Z
2019-09-29T10:33:53Z,42.805,6.029,13.2961,4.59964,2469.923,2019-9-29T12:34:17Z
2019-09-29T10:36:56Z,42.805,6.029,13.2956,4.59963,2469.923,2019-9-29T12:37:20Z
2019-09-29T10:39:59Z,42.805,6.029,13.2958,4.59963,2469.947,2019-9-29T12:40:23Z
2019-09-29T10:43:02Z,42.805,6.029,13.2960,4.59961,2469.9,2019-9-29T12:43:26Z
2019-09-29T10:46:05Z,42.805,6.029,13.2959,4.59963,2469.9,2019-9-29T12:46:29Z
2019-09-29T10:49:09Z,42.805,6.029,13.2961,4.59961,2469.947,2019-9-29T12:49:33Z
2019-09-29T10:52:12Z,42.805,6.029,13.2958,4.59964,2469.923,2019-9-29T12:52:36Z
2019-09-29T10:55:15Z,42.805,6.029,13.2955,4.59958,2469.96,2019-9-29T12:55:39Z
2019-09-29T10:58:18Z,42.805,6.029,13.2958,4.59960,2469.923,2019-9-29T12:58:42Z
2019-09-29T11:01:21Z,42.805,6.029,13.2959,4.59964,2469.914,2019-9-29T13:01:45Z
2019-09-29T11:04:25Z,42.805,6.029,13.2961,4.59964,2469.937,2019-9-29T13:04:49Z
2019-09-29T11:07:28Z,42.805,6.029,13.2961,4.59964,2469.876,2019-9-29T13:07:52Z
2019-09-29T11:10:31Z,42.805,6.029,13.2957,4.59970,2469.9,2019-9-29T13:10:55Z
2019-09-29T11:13:34Z,42.805,6.029,13.2958,4.59967,2469.9,2019-9-29T13:13:58Z
2019-09-29T11:16:37Z,42.805,6.029,13.2960,4.59961,2469.937,2019-9-29T13:17:01Z
2019-09-29T11:19:40Z,42.805,6.029,13.2957,4.59961,2469.867,2019-9-29T13:20:05Z
2019-09-29T11:22:44Z,42.805,6.029,13.2960,4.59962,2469.89,2019-9-29T13:23:08Z
2019-09-29T11:25:47Z,42.805,6.029,13.2961,4.59962,2469.876,2019-9-29T13:26:11Z
2019-09-29T11:28:50Z,42.805,6.029,13.2958,4.59962,2469.876,2019-9-29T13:29:14Z
2019-09-29T11:31:54Z,42.805,6.029,13.2958,4.59960,2469.853,2019-9-29T13:32:18Z
2019-09-29T11:34:57Z,42.805,6.029,13.2953,4.59961,2469.876,2019-9-29T13:35:21Z
2019-09-29T11:38:00Z,42.805,6.029,13.2959,4.59967,2469.83,2019-9-29T13:38:24Z
2019-09-29T11:41:03Z,42.805,6.029,13.2962,4.59962,2469.9,2019-9-29T13:41:27Z
2019-09-29T11:44:06Z,42.805,6.029,13.2957,4.59961,2469.89,2019-9-29T13:44:30Z
2019-09-29T11:47:10Z,42.805,6.029,13.2957,4.59961,2469.853,2019-9-29T13:47:34Z
2019-09-29T11:50:13Z,42.805,6.029,13.2958,4.59970,2469.867,2019-9-29T13:50:37Z
2019-09-29T11:53:16Z,42.805,6.029,13.2957,4.59961,2469.844,2019-9-29T13:53:40Z
2019-09-29T11:56:19Z,42.805,6.029,13.2957,4.59961,2469.876,2019-9-29T13:56:44Z
2019-09-29T11:59:23Z,42.805,6.029,13.2958,4.59961,2469.83,2019-9-29T13:59:47Z
2019-09-29T12:02:26Z,42.805,6.029,13.2955,4.59964,2469.853,2019-9-29T14:02:50Z
2019-09-29T12:05:29Z,42.805,6.029,13.2958,4.59961,2469.853,2019-9-29T14:05:53Z
2019-09-29T12:08:32Z,42.805,6.029,13.2957,4.59966,2469.867,2019-9-29T14:08:56Z
2019-09-29T12:11:35Z,42.805,6.029,13.2957,4.59964,2469.914,2019-9-29T14:12:00Z
2019-09-29T12:14:39Z,42.805,6.029,13.2957,4.59964,2469.867,2019-9-29T14:15:03Z
2019-09-29T12:17:42Z,42.805,6.029,13.2958,4.59963,2469.83,2019-9-29T14:18:06Z
2019-09-29T12:20:45Z,42.805,6.029,13.2958,4.59969,2469.821,2019-9-29T14:21:09Z
2019-09-29T12:23:48Z,42.805,6.029,13.2960,4.59971,2469.844,2019-9-29T14:24:12Z
2019-09-29T12:26:51Z,42.805,6.029,13.2958,4.59966,2469.821,2019-9-29T14:27:15Z
2019-09-29T12:29:55Z,42.805,6.029,13.2962,4.59966,2469.83,2019-9-29T14:30:19Z
2019-09-29T12:32:58Z,42.805,6.029,13.2959,4.59961,2469.867,2019-9-29T14:33:22Z
2019-09-29T12:36:01Z,42.805,6.029,13.2953,4.59960,2469.867,2019-9-29T14:36:25Z
2019-09-29T12:39:04Z,42.805,6.029,13.2958,4.59961,2469.83,2019-9-29T14:39:28Z
2019-09-29T12:42:07Z,42.805,6.029,13.2957,4.59966,2469.844,2019-9-29T14:42:31Z
2019-09-29T12:45:11Z,42.805,6.029,13.2959,4.59964,2469.821,2019-9-29T14:45:35Z
2019-09-29T12:48:14Z,42.805,6.029,13.2958,4.59960,2469.806,2019-9-29T14:48:38Z
2019-09-29T12:51:17Z,42.805,6.029,13.2957,4.59968,2469.806,2019-9-29T14:51:41Z
2019-09-29T12:54:20Z,42.805,6.029,13.2957,4.59960,2469.83,2019-9-29T14:54:44Z
2019-09-29T12:57:23Z,42.805,6.029,13.2955,4.59959,2469.806,2019-9-29T14:57:47Z
2019-09-29T13:00:26Z,42.805,6.029,13.2958,4.59958,2469.821,2019-9-29T15:00:51Z
2019-09-29T13:03:30Z,42.805,6.029,13.2956,4.59963,2469.83,2019-9-29T15:03:54Z
2019-09-29T13:06:33Z,42.805,6.029,13.2954,4.59962,2469.797,2019-9-29T15:06:57Z
2019-09-29T13:09:36Z,42.805,6.029,13.2958,4.59962,2469.83,2019-9-29T15:10:00Z
2019-09-29T13:12:39Z,42.805,6.029,13.2957,4.59963,2469.83,2019-9-29T15:13:03Z
2019-09-29T13:15:42Z,42.805,6.029,13.2958,4.59967,2469.806,2019-9-29T15:16:06Z
2019-09-29T13:18:46Z,42.805,6.029,13.2958,4.59964,2469.806,2019-9-29T15:19:10Z
2019-09-29T13:21:49Z,42.805,6.029,13.2958,4.59963,2469.806,2019-9-29T15:22:13Z
2019-09-29T13:24:52Z,42.805,6.029,13.2954,4.59963,2469.806,2019-9-29T15:25:16Z
2019-09-29T13:27:55Z,42.805,6.029,13.2957,4.59965,2469.806,2019-9-29T15:28:20Z
2019-09-29T13:30:59Z,42.805,6.029,13.2958,4.59971,2469.797,2019-9-29T15:31:23Z
2019-09-29T13:34:02Z,42.805,6.029,13.2957,4.59971,2469.783,2019-9-29T15:34:26Z
2019-09-29T13:37:05Z,42.805,6.029,13.2955,4.59964,2469.783,2019-9-29T15:37:29Z
2019-09-29T13:40:08Z,42.805,6.029,13.2958,4.59966,2469.821,2019-9-29T15:40:32Z
2019-09-29T13:43:12Z,42.805,6.029,13.2957,4.59967,2469.76,2019-9-29T15:43:36Z
2019-09-29T13:46:15Z,42.805,6.029,13.2956,4.59968,2469.783,2019-9-29T15:46:39Z
2019-09-29T13:49:18Z,42.805,6.029,13.2959,4.59971,2469.806,2019-9-29T15:49:42Z
2019-09-29T13:52:21Z,42.805,6.029,13.2958,4.59978,2469.806,2019-9-29T15:52:45Z
2019-09-29T13:55:24Z,42.805,6.029,13.2959,4.59968,2469.806,2019-9-29T15:55:49Z
2019-09-29T13:58:28Z,42.805,6.029,13.2958,4.59979,2469.783,2019-9-29T15:58:52Z
2019-09-29T14:01:31Z,42.805,6.029,13.2960,4.59975,2469.783,2019-9-29T16:01:55Z
2019-09-29T14:04:34Z,42.805,6.029,13.2958,4.59969,2469.783,2019-9-29T16:04:58Z
2019-09-29T14:07:37Z,42.805,6.029,13.2956,4.59973,2469.797,2019-9-29T16:08:01Z
2019-09-29T14:10:40Z,42.805,6.029,13.2960,4.59975,2469.783,2019-9-29T16:11:05Z
2019-09-29T14:13:44Z,42.805,6.029,13.2958,4.59985,2469.797,2019-9-29T16:14:08Z
2019-09-29T14:16:47Z,42.805,6.029,13.2957,4.59968,2469.83,2019-9-29T16:17:11Z
2019-09-29T14:19:50Z,42.805,6.029,13.2957,4.59973,2469.821,2019-9-29T16:20:14Z
2019-09-29T14:22:53Z,42.805,6.029,13.2959,4.59983,2469.76,2019-9-29T16:23:17Z
2019-09-29T14:25:56Z,42.805,6.029,13.2964,4.59973,2469.76,2019-9-29T16:26:20Z
2019-09-29T14:29:00Z,42.805,6.029,13.2961,4.59979,2469.783,2019-9-29T16:29:24Z
2019-09-29T14:32:03Z,42.805,6.029,13.2959,4.59973,2469.783,2019-9-29T16:32:27Z
2019-09-29T14:35:06Z,42.805,6.029,13.2958,4.59971,2469.821,2019-9-29T16:35:30Z
2019-09-29T14:38:09Z,42.805,6.029,13.2957,4.59975,2469.821,2019-9-29T16:38:33Z
2019-09-29T14:41:13Z,42.805,6.029,13.2961,4.59967,2469.844,2019-9-29T16:41:37Z
2019-09-29T14:44:16Z,42.805,6.029,13.2961,4.59971,2469.806,2019-9-29T16:44:40Z
2019-09-29T14:47:19Z,42.805,6.029,13.2958,4.59976,2469.844,2019-9-29T16:47:43Z
2019-09-29T14:50:22Z,42.805,6.029,13.2956,4.59970,2469.83,2019-9-29T16:50:46Z
2019-09-29T14:53:25Z,42.805,6.029,13.2957,4.59970,2469.797,2019-9-29T16:53:49Z
2019-09-29T14:56:28Z,42.805,6.029,13.2954,4.59964,2469.806,2019-9-29T16:56:53Z
2019-09-29T14:59:32Z,42.805,6.029,13.2964,4.59962,2469.853,2019-9-29T16:59:56Z
2019-09-29T15:02:35Z,42.805,6.029,13.2953,4.59961,2469.821,2019-9-29T17:02:59Z
2019-09-29T15:05:38Z,42.805,6.029,13.2959,4.59966,2469.844,2019-9-29T17:06:02Z
2019-09-29T15:08:41Z,42.805,6.029,13.2957,4.59972,2469.83,2019-9-29T17:09:05Z
2019-09-29T15:11:44Z,42.805,6.029,13.2954,4.59970,2469.821,2019-9-29T17:12:09Z
2019-09-29T15:14:48Z,42.805,6.029,13.2963,4.59971,2469.844,2019-9-29T17:15:12Z